DateTimeUTC,F1_A11,F1_S11,BsB_S11,BsG_S11,BsR_S11,BbsB_S11,BbsG_S11,BbsR_S11,BaB_A11,BaG_A11,BaR_A11,Tu_S11,T_S11,Uu_S11,U_S11,P_S11,T1_A11
2021-08-20T10:00:00Z,00000200,20000000,,,,,,,0000.35,0000.35,0000.18,19.4,26.1,12.5,08.3,0675.2,31.1
2021-08-20T10:01:00Z,00000200,20000000,,,,,,,-000.06,-000.07,0000.23,19.4,26.1,12.5,08.3,0675.2,31.1
2021-08-20T10:02:00Z,00000200,20000000,,,,,,,-000.14,0000.41,-000.01,19.4,26.1,12.5,08.3,0675.2,31.1
2021-08-20T10:03:00Z,00000200,60000000,,,,,,,0000.62,-000.21,0000.08,19.4,26.1,12.5,08.3,0675.2,31.1
2021-08-20T10:04:00Z,00000200,40000000,0002.01,0000.85,0000.64,0000.82,0000.10,-000.11,0000.13,0001.00,0000.19,19.6,26.0,12.6,08.6,0676.1,31.1
2021-08-20T10:05:00Z,00000200,00000000,0001.45,0001.30,0000.58,-000.13,0000.29,-000.15,0000.45,0000.03,0000.39,19.6,26.0,12.6,08.6,0676.2,31.1
2021-08-20T10:06:00Z,00000200,00000000,0001.22,0001.30,0000.92,0000.13,-000.01,0000.06,0000.48,0000.46,0000.21,19.6,25.9,12.6,08.6,0676.2,31.1
2021-08-20T10:07:00Z,00000200,00000000,0000.80,0001.33,0001.03,0000.86,0000.07,-000.22,0000.19,0000.59,0000.40,19.6,26.0,12.6,08.6,0676.2,31.1
2021-08-20T10:08:00Z,00000200,00000000,0002.48,0001.50,0000.67,0000.23,0000.37,0000.17,0000.52,-000.24,-000.01,19.6,26.0,12.5,08.6,0676.2,31.1
2021-08-20T10:09:00Z,00000200,00000000,0001.10,0001.16,0000.91,-000.39,0000.10,0000.31,0000.58,0000.57,0000.46,19.7,25.9,12.6,08.6,0676.2,31.1
2021-08-20T10:10:00Z,00000200,00000000,0001.87,0001.84,0000.62,0000.23,0000.31,-000.05,0000.31,0000.36,0000.30,19.7,25.9,12.4,08.5,0676.2,31.1
2021-08-20T10:11:00Z,00000200,00000000,0001.50,0001.31,0000.94,-000.11,0000.05,-000.21,0000.47,0000.71,0000.52,19.7,25.9,12.5,08.6,0676.2,31.1
2021-08-20T10:12:00Z,00000200,00000000,0001.92,0001.36,0000.56,0000.33,0000.07,-000.03,0000.31,0000.09,0000.10,19.7,26.0,12.5,08.5,0676.2,31.1
2021-08-20T10:13:00Z,00000200,00000000,0002.28,0001.27,0000.68,-000.04,0000.15,-000.24,0000.28,0000.49,0000.41,19.7,25.9,12.5,08.6,0676.2,31.1
2021-08-20T10:14:00Z,00000200,00000000,0001.31,0001.53,0000.86,0000.39,-000.04,-000.27,0000.28,0000.27,0000.21,19.7,26.0,12.4,08.5,0676.2,31.1
2021-08-20T10:15:00Z,00000200,00000000,0001.58,0001.06,0000.57,0000.03,0000.40,0000.06,0000.67,0000.24,0000.20,19.7,25.9,12.4,08.5,0676.2,31.1
2021-08-20T10:16:00Z,00000200,00000000,0001.91,0001.77,0000.66,0000.17,0000.38,0000.08,0000.46,0000.77,0000.20,19.7,26.0,12.3,08.4,0676.2,31.1
2021-08-20T10:17:00Z,00000200,00000000,0002.09,0001.32,0001.00,0000.83,-000.02,0000.08,0000.38,0000.21,0000.46,19.7,25.9,12.4,08.5,0676.2,31.1
2021-08-20T10:18:00Z,00000200,00000000,0001.90,0001.63,0000.73,0000.70,0000.17,-000.14,0000.42,0000.38,0000.16,19.7,25.9,12.4,08.5,0676.2,31.1
2021-08-20T10:19:00Z,00000200,00000000,0001.79,0001.38,0000.87,0000.45,0000.26,0000.13,0000.55,0000.13,0000.43,19.7,25.9,12.2,08.4,0676.2,31.1
2021-08-20T10:20:00Z,00000200,00000000,0001.89,0001.51,0000.73,0000.20,0000.58,-000.06,0000.64,0000.81,0000.48,19.7,25.9,12.3,08.4,0676.1,31.1
2021-08-20T10:21:00Z,00000200,00000000,0001.57,0001.21,0000.95,0000.60,0000.12,-000.05,0000.22,0000.38,0000.44,19.7,26.0,12.2,08.3,0676.2,31.1
2021-08-20T10:22:00Z,00000200,00000000,0001.53,0001.56,0000.82,0000.30,0000.08,0000.13,0000.44,0000.51,0000.19,19.7,26.0,12.2,08.4,0676.1,31.1
2021-08-20T10:23:00Z,00000200,00000000,0001.25,0001.65,0000.90,-000.15,-000.01,-000.04,0000.51,0000.28,0000.05,19.7,26.0,12.2,08.4,0676.1,31.1
2021-08-20T10:24:00Z,00000200,00000000,0001.74,0001.54,0000.87,0000.91,0000.21,0000.09,0000.37,0000.54,0000.45,19.7,26.0,12.1,08.3,0676.1,31.1
2021-08-20T10:25:00Z,00000200,00000000,0002.33,0001.66,0000.98,-000.13,0000.12,0000.04,0000.50,0000.43,0000.48,19.7,26.0,12.1,08.3,0676.1,31.1
2021-08-20T10:26:00Z,00000200,00000000,0002.19,0001.71,0000.98,0000.46,0000.12,-000.24,0000.49,0000.48,0000.29,19.7,26.0,12.1,08.3,0676.1,31.1
2021-08-20T10:27:00Z,00000200,00000000,0001.41,0001.32,0000.80,0000.94,0000.01,-000.21,0000.63,0000.50,0000.50,19.7,26.0,12.0,08.2,0676.1,31.1
2021-08-20T10:28:00Z,00000200,00000000,0001.17,0001.49,0000.89,0000.23,0000.27,-000.21,0000.18,0000.06,0000.08,19.7,26.0,11.9,08.1,0676.1,31.1
2021-08-20T10:29:00Z,00000200,00000000,0001.99,0001.24,0000.63,0000.21,0000.26,0000.01,0000.25,0000.33,0000.17,19.7,26.0,11.8,08.1,0676.1,31.1
2021-08-20T10:30:00Z,00000200,00000000,0000.62,0001.07,0001.12,0000.60,0000.08,-000.11,0000.19,0000.14,0000.62,19.8,26.0,11.7,08.1,0676.1,31.1
2021-08-20T10:31:00Z,00000200,00000000,0001.65,0001.15,0000.50,0000.48,0000.24,-000.08,0000.62,0000.77,-000.05,19.8,26.0,11.8,08.1,0676.1,31.1
2021-08-20T10:32:00Z,00000200,00000000,0002.05,0001.17,0001.05,0000.34,0000.42,0000.09,0000.26,0000.31,0000.81,19.8,26.0,11.8,08.1,0676.1,31.1
2021-08-20T10:33:00Z,00000200,00000000,0002.59,0000.96,0000.88,0000.22,0000.03,0000.06,0000.28,-000.05,-000.41,19.8,26.0,11.8,08.1,0676.1,31.1
2021-08-20T10:34:00Z,00000200,00000000,0001.52,0001.17,0000.42,0000.29,0000.16,-000.06,0000.09,0000.13,0000.19,19.8,26.0,11.8,08.1,0676.1,31.1
2021-08-20T10:35:00Z,00000200,00000000,0001.86,0001.31,0000.94,0000.33,0000.08,-000.20,0000.80,0000.60,0000.54,19.8,26.0,11.7,08.0,0676.1,31.1
2021-08-20T10:36:00Z,00000200,00000000,0002.15,0001.54,0000.75,-000.20,0000.21,-000.10,0000.15,0000.43,0000.13,19.8,26.0,11.7,08.0,0676.1,31.1
2021-08-20T10:37:00Z,00000200,00000000,0001.28,0001.55,0000.89,0000.23,-000.23,-000.48,0000.32,0000.23,0000.04,19.8,26.0,11.6,08.0,0676.2,31.1
2021-08-20T10:38:00Z,00000200,00000000,0002.12,0001.29,0000.41,0000.34,0000.27,-000.33,0000.69,0000.63,0000.59,19.8,26.0,11.6,08.0,0676.2,31.1
2021-08-20T10:39:00Z,00000200,00000000,0002.12,0001.18,0000.98,0000.17,-000.23,-000.02,0000.26,-000.04,0000.29,19.8,26.0,11.6,07.9,0676.2,31.1
2021-08-20T10:40:00Z,00000200,00000000,0001.54,0001.38,0000.65,0000.09,0000.52,-000.14,0000.25,0000.22,0000.07,19.8,26.0,11.5,07.9,0676.2,31.1
2021-08-20T10:41:00Z,00000200,00000000,0001.62,0001.32,0000.94,-000.00,-000.05,0000.29,0000.46,0000.37,0000.28,19.8,26.0,11.5,07.9,0676.2,31.1
2021-08-20T10:42:00Z,00000200,00000000,0001.07,0001.09,0000.97,0000.33,0000.34,-000.13,0000.27,0000.64,0000.08,19.8,26.0,11.5,07.9,0676.2,31.1
2021-08-20T10:43:00Z,00000200,00000000,0000.93,0001.10,0000.50,0000.35,0000.13,-000.22,0000.57,0000.35,0000.19,19.8,26.0,11.5,07.9,0676.2,31.1
2021-08-20T10:44:00Z,00000200,00000000,0000.96,0000.96,0000.79,0000.94,0000.29,-000.30,0000.18,0000.34,0000.60,19.8,26.0,11.5,07.9,0676.2,31.2
2021-08-20T10:45:00Z,00000200,00000000,0001.32,0000.93,0000.49,-000.00,-000.06,-000.03,0000.37,-000.02,-000.00,19.8,26.0,11.4,07.9,0676.2,31.1
2021-08-20T10:46:00Z,00000200,00000000,0001.44,0001.35,0000.31,0000.48,0000.18,-000.28,0000.20,0000.27,0000.70,19.8,26.0,11.5,07.9,0676.2,31.1
2021-08-20T10:47:00Z,00000200,00000000,0001.62,0001.09,0000.83,0000.51,0000.20,-000.12,0000.30,0000.57,-000.15,19.8,26.0,11.4,07.9,0676.2,31.1
2021-08-20T10:48:00Z,00000200,00000000,0001.33,0001.14,0000.60,0000.29,0000.12,-000.31,0000.39,0000.18,0000.28,19.8,26.0,11.4,07.9,0676.2,31.1
2021-08-20T10:49:00Z,00000200,00000000,0001.68,0000.97,0000.56,-000.12,0000.12,-000.15,0000.31,0000.41,0000.23,19.8,26.0,11.5,07.9,0676.2,31.1
2021-08-20T10:50:00Z,00000200,00000000,0001.71,0000.85,0000.75,0000.25,-000.13,-000.16,0000.37,0000.32,0000.01,19.8,26.0,11.4,07.9,0676.2,31.1
2021-08-20T10:51:00Z,00000200,00000000,0001.75,0001.25,0000.40,-000.19,-000.12,-000.27,0000.17,0000.14,0000.53,19.8,26.0,11.4,07.9,0676.2,31.1
2021-08-20T10:52:00Z,00000200,00000000,0001.08,0001.05,0000.39,0000.90,-000.05,-000.12,0000.29,0000.18,0000.26,19.8,26.0,11.4,07.8,0676.2,31.1
2021-08-20T10:53:00Z,00000200,00000000,0001.52,0001.56,0001.04,0000.77,0000.29,-000.04,0000.66,0000.81,0000.33,19.8,26.0,11.5,07.9,0676.2,31.1
2021-08-20T10:54:00Z,00000200,00000000,0002.25,0001.79,0000.89,0000.37,0000.38,-000.10,0000.61,0000.29,0000.32,19.9,26.0,11.3,07.8,0676.2,31.1
2021-08-20T10:55:00Z,00000200,00000000,0002.04,0001.50,0000.76,0000.48,0000.01,-000.59,0000.16,0000.39,0000.54,19.9,26.0,11.4,07.8,0676.2,31.1
2021-08-20T10:56:00Z,00000200,00000000,0001.95,0001.44,0000.83,0000.67,0000.07,0000.02,0000.82,0000.64,0000.21,19.9,26.0,11.4,07.8,0676.2,31.1
2021-08-20T10:57:00Z,00000200,40000000,,,,,,,0000.21,0000.09,-000.04,19.9,26.1,11.8,08.1,0676.3,31.1
2021-08-20T10:58:00Z,00000200,60000000,,,,,,,-000.10,-000.13,-000.14,19.7,26.1,11.6,07.8,0675.2,31.1
2021-08-20T10:59:00Z,00000200,20000000,,,,,,,-000.15,0000.13,0000.26,19.6,26.2,11.4,07.6,0675.2,31.1
